[[{"header":{"parameterUnit":"m.s-1","parameterCategory":2,"la1":30.2992,"la2":30.254,"lo1":-89.0895,"lo2":-89.0443,"dy":0.0025,"dx":0.0025,"nx":19,"ny":19,"refTime":"2026-04-30T09:00:00:Z","depth":"0","parameterNumber":2,"parameterNumberName":"U-component_of_CURRENTS"},"data":[0,0,0,0.0651,0.065,0.0617,0.0617,0.0584,0.0584,0,0,0,0,0,0,0,0,0,0,0,0.0657,0.0657,0.0651,0.065,0.0617,0.0617,0.0584,0.0584,0,0,0,0,0,0,0,0,0,0,0,0.0657,0.0657,0.0657,0.065,0.0618,0.0617,0.0584,0.0604,0,0,0,0,0,0,0,0,0,0,0.0634,0.0644,0.0657,0.0657,0.065,0.0618,0.0617,0.0605,0.0603,0.0605,0,0.0603,0,0.06,0.0583,0.0583,0,0,0,0.064,0.0646,0.0638,0.0657,0.065,0.0618,0.0629,0.0604,0.0601,0.0602,0.0602,0.0601,0.0599,0.0583,0.0583,0.0606,0.0606,0,0,0.0641,0.0649,0.064,0.0637,0.0646,0.063,0.0628,0.0602,0.0601,0.0602,0.06,0.0599,0.0583,0.0582,0.0606,0.0606,0,0,0,0.0654,0.065,0.0643,0.0638,0.0636,0.063,0.0627,0.0602,0.06,0.06,0.0598,0.0582,0.0582,0.0605,0.0606,0.0621,0,0,0,0.0655,0.0658,0.0644,0.0647,0.0637,0.0618,0.0628,0.0601,0.0599,0.0599,0.0582,0.0582,0.0605,0.0606,0.062,0.063,0,0,0,0.0658,0.0659,0.0656,0.0648,0.0639,0.0618,0.0614,0.06,0.0598,0.0583,0.0582,0.0605,0.0605,0.0618,0.0628,0.0648,0,0,0,0.0664,0.0662,0.0656,0.0652,0.064,0.0634,0.0614,0.061,0.06,0.0582,0.0605,0.0606,0.0618,0.0627,0.0647,0.063,0.0635,0,0,0.0665,0.0662,0.0659,0.0654,0.065,0.0638,0.0638,0.0619,0.0615,0.0611,0.0611,0.062,0.0628,0.0648,0.0681,0.0684,0,0,0,0.0662,0.066,0.0657,0.0653,0.0649,0.0647,0.0634,0.0637,0.0638,0.0615,0.0634,0.0639,0.0651,0.0638,0.0641,0.0404,0.061,0.061,0.061,0.0659,0.0658,0.0654,0.0652,0.0655,0.0659,0.0662,0.0667,0.0654,0.0668,0.0661,0.0701,0.0689,0.069,0.0446,0.0671,0.0671,0.0671,0.0671,0.0647,0.0637,0.065,0.0646,0.0656,0.0662,0.0684,0.0687,0.0709,0.0693,0.0704,0.0667,0.0694,0.0433,0.0672,0.0672,0.0672,0.0672,0.0672,0.0626,0.0624,0.0628,0.0635,0.0649,0.0663,0.069,0.071,0.0726,0.0741,0.0728,0.0728,0.0489,0.0746,0.0746,0.0746,0.0746,0.0746,0.0746,0.0597,0.0606,0.0606,0.0621,0.0629,0.0652,0.0695,0.0721,0.0749,0.0752,0.0752,0.0472,0.0724,0.0711,0.0749,0.0748,0.0748,0.0748,0.0747,0.0566,0.0579,0.0582,0.0589,0.0609,0.0612,0.0668,0.0713,0.0753,0.0765,0.047,0.0758,0.0753,0.075,0.0738,0.078,0.078,0.078,0.078,0.0549,0.0553,0.0561,0.057,0.0588,0.0593,0.0562,0.056,0.0477,0.0367,0.0347,0.028,0.0289,0.0251,0.026,0.0236,0.015,0.0148,0.0147,0.0536,0.0543,0.0544,0.0556,0.0573,0.0558,0.0455,0.023,0.0092,0.0095,0.0015,0.0042,-0.0084,-0.005,-0.0128,-0.0097,-0.0141,0,0]},{"header":{"parameterUnit":"m.s-1","parameterCategory":2,"la1":30.2992,"la2":30.254,"lo1":-89.0895,"lo2":-89.0443,"dy":0.0025,"dx":0.0025,"nx":19,"ny":19,"refTime":"2026-04-30T09:00:00:Z","depth":"0","parameterNumber":3,"parameterNumberName":"V-component_of_CURRENTS"},"data":[0,0,0,-0.0493,-0.0493,-0.0493,-0.0493,-0.0433,-0.0432,0,0,0,0,0,0,0,0,0,0,0,-0.0498,-0.0498,-0.0493,-0.0493,-0.0493,-0.0493,-0.0433,-0.0432,0,0,0,0,0,0,0,0,0,0,0,-0.0498,-0.0498,-0.0498,-0.0493,-0.0493,-0.0493,-0.0433,-0.0447,0,0,0,0,0,0,0,0,0,0,-0.0455,-0.0463,-0.0498,-0.0498,-0.0493,-0.0493,-0.0493,-0.0449,-0.0446,-0.0417,0,-0.0425,0,-0.0424,-0.0427,-0.0427,0,0,0,-0.049,-0.0465,-0.047,-0.0498,-0.0493,-0.0493,-0.0492,-0.0448,-0.0445,-0.0413,-0.0424,-0.0422,-0.0423,-0.0426,-0.0426,-0.0357,-0.0357,0,0,-0.049,-0.0489,-0.0472,-0.0469,-0.0501,-0.0492,-0.0492,-0.0447,-0.0443,-0.0424,-0.042,-0.0422,-0.0426,-0.0425,-0.0358,-0.0357,0,0,0,-0.0492,-0.0489,-0.0496,-0.0471,-0.0475,-0.0492,-0.0492,-0.0445,-0.0449,-0.042,-0.0422,-0.0425,-0.0424,-0.0358,-0.0358,-0.0345,0,0,0,-0.0492,-0.049,-0.0496,-0.0494,-0.0476,-0.0466,-0.0491,-0.0453,-0.0448,-0.0422,-0.0425,-0.0424,-0.0358,-0.0358,-0.0346,-0.034,0,0,0,-0.0496,-0.049,-0.0495,-0.0494,-0.0495,-0.0467,-0.0469,-0.0452,-0.0448,-0.0427,-0.0424,-0.0358,-0.0358,-0.0346,-0.0341,-0.0332,0,0,0,-0.0488,-0.0486,-0.0495,-0.049,-0.0496,-0.0471,-0.0469,-0.0442,-0.0423,-0.0425,-0.0358,-0.0358,-0.0347,-0.0341,-0.0333,-0.0339,-0.0336,0,0,-0.0479,-0.0485,-0.0482,-0.0489,-0.0467,-0.047,-0.0435,-0.0411,-0.0407,-0.0368,-0.0367,-0.0345,-0.0341,-0.0332,-0.0315,-0.0313,0,0,0,-0.0474,-0.0472,-0.0465,-0.046,-0.0447,-0.0425,-0.0406,-0.0395,-0.0371,-0.0395,-0.034,-0.0338,-0.0333,-0.0338,-0.0336,-0.0384,-0.0356,-0.0356,-0.0356,-0.045,-0.0452,-0.0434,-0.0429,-0.0415,-0.0385,-0.0367,-0.0349,-0.0344,-0.0335,-0.0323,-0.0303,-0.0308,-0.0307,-0.0355,-0.0319,-0.0319,-0.0319,-0.0319,-0.0425,-0.0412,-0.0413,-0.0397,-0.038,-0.0354,-0.0326,-0.0321,-0.0296,-0.0304,-0.03,-0.0319,-0.0304,-0.0357,-0.0318,-0.0318,-0.0319,-0.0319,-0.0319,-0.0402,-0.0393,-0.0393,-0.0376,-0.035,-0.0333,-0.0303,-0.0289,-0.0287,-0.0276,-0.0286,-0.0286,-0.0336,-0.0276,-0.0276,-0.0276,-0.0276,-0.0276,-0.0276,-0.0373,-0.0371,-0.0363,-0.0348,-0.0338,-0.0314,-0.0286,-0.0272,-0.0265,-0.027,-0.027,-0.0334,-0.029,-0.0296,-0.0275,-0.0275,-0.0275,-0.0275,-0.0275,-0.0337,-0.035,-0.0341,-0.0334,-0.0304,-0.0301,-0.0271,-0.0256,-0.0237,-0.0237,-0.0322,-0.0267,-0.0272,-0.0274,-0.028,-0.0255,-0.0255,-0.0255,-0.0255,-0.0318,-0.0321,-0.033,-0.0321,-0.0296,-0.029,-0.0306,-0.0305,-0.0312,-0.034,-0.0341,-0.0361,-0.0359,-0.0371,-0.037,-0.0379,-0.038,-0.038,-0.0381,-0.0297,-0.0311,-0.032,-0.0322,-0.0302,-0.0295,-0.0371,-0.0485,-0.0463,-0.0391,-0.0406,-0.04,-0.0435,-0.0429,-0.0452,-0.0448,-0.0462,0,0]}],[{"header":{"parameterUnit":"m.s-1","parameterCategory":2,"la1":30.2992,"la2":30.254,"lo1":-89.0895,"lo2":-89.0443,"dy":0.0025,"dx":0.0025,"nx":19,"ny":19,"refTime":"2026-04-30T09:00:00:Z","depth":"2","parameterNumber":2,"parameterNumberName":"U-component_of_CURRENTS"},"data":[0,0,0,0.0691,0.0691,0.0657,0.0657,0.0626,0.0626,0,0,0,0,0,0,0,0,0,0,0,0.0698,0.0697,0.0691,0.069,0.0657,0.0657,0.0626,0.0626,0,0,0,0,0,0,0,0,0,0,0,0.0698,0.0697,0.0697,0.069,0.0657,0.0657,0.0626,0.0646,0,0,0,0,0,0,0,0,0,0,0.0676,0.0685,0.0697,0.0697,0.069,0.0658,0.0657,0.0647,0.0645,0.0648,0,0.0645,0,0.0642,0.0625,0.0625,0,0,0,0.068,0.0687,0.0679,0.0697,0.069,0.0658,0.0669,0.0645,0.0643,0.0645,0.0645,0.0644,0.0642,0.0625,0.0625,0.065,0.065,0,0,0.0682,0.0689,0.0681,0.0678,0.0685,0.0671,0.0669,0.0644,0.0643,0.0645,0.0643,0.0641,0.0625,0.0625,0.065,0.065,0,0,0,0.0694,0.069,0.0683,0.0679,0.0676,0.067,0.0667,0.0644,0.0642,0.0642,0.0641,0.0625,0.0625,0.0649,0.065,0.0664,0,0,0,0.0695,0.0698,0.0684,0.0687,0.0677,0.0659,0.0668,0.0643,0.064,0.0641,0.0625,0.0625,0.0649,0.0649,0.0663,0.0673,0,0,0,0.0698,0.0699,0.0696,0.0688,0.0679,0.0659,0.0655,0.0642,0.064,0.0625,0.0625,0.0649,0.0649,0.0661,0.0671,0.0692,0,0,0,0.0704,0.0702,0.0696,0.0692,0.0679,0.0675,0.0655,0.0652,0.0642,0.0625,0.0649,0.065,0.0661,0.067,0.069,0.0678,0.0683,0,0,0.0705,0.0703,0.0699,0.0694,0.069,0.0678,0.0679,0.0661,0.0657,0.0655,0.0655,0.0663,0.0671,0.0691,0.0729,0.0733,0,0,0,0.0702,0.07,0.0697,0.0693,0.069,0.0689,0.0676,0.0679,0.068,0.0657,0.0677,0.0682,0.0694,0.0685,0.0688,0.0654,0.0654,0.0654,0.0654,0.0699,0.0698,0.0694,0.0693,0.0696,0.07,0.0704,0.0709,0.0697,0.0711,0.0704,0.0744,0.0734,0.0736,0.0713,0.0713,0.0713,0.0713,0.0713,0.0687,0.0677,0.069,0.0687,0.0697,0.0703,0.0726,0.0729,0.0751,0.0736,0.0746,0.0713,0.074,0.0715,0.0715,0.0714,0.0714,0.0714,0.0714,0.0666,0.0664,0.0667,0.0675,0.0689,0.0704,0.0732,0.0752,0.0768,0.0783,0.0774,0.0773,0.0748,0.0787,0.0787,0.0787,0.0787,0.0788,0.0788,0.0636,0.0645,0.0645,0.0661,0.0669,0.0693,0.0736,0.0762,0.0793,0.0797,0.0797,0.0769,0.0766,0.0753,0.079,0.079,0.0789,0.0789,0.0789,0.0605,0.0618,0.0621,0.0629,0.0649,0.0666,0.0711,0.0758,0.0796,0.081,0.0807,0.0805,0.0801,0.0798,0.0786,0.083,0.083,0.083,0.083,0.0588,0.0593,0.06,0.0609,0.0627,0.0651,0.0659,0.0681,0.0739,0.0739,0.0742,0.0711,0.0712,0.0701,0.07,0.0685,0.0702,0.0702,0.0702,0.0575,0.0582,0.0583,0.0594,0.0613,0.0631,0.0609,0.0514,0.052,0.0693,0.0683,0.0829,0.0792,0.079,0.0778,0.0775,0.0754,0,0]},{"header":{"parameterUnit":"m.s-1","parameterCategory":2,"la1":30.2992,"la2":30.254,"lo1":-89.0895,"lo2":-89.0443,"dy":0.0025,"dx":0.0025,"nx":19,"ny":19,"refTime":"2026-04-30T09:00:00:Z","depth":"2","parameterNumber":3,"parameterNumberName":"V-component_of_CURRENTS"},"data":[0,0,0,-0.0436,-0.0436,-0.0437,-0.0437,-0.0377,-0.0376,0,0,0,0,0,0,0,0,0,0,0,-0.0442,-0.0442,-0.0436,-0.0436,-0.0437,-0.0437,-0.0377,-0.0376,0,0,0,0,0,0,0,0,0,0,0,-0.0442,-0.0442,-0.0443,-0.0436,-0.0437,-0.0437,-0.0377,-0.0391,0,0,0,0,0,0,0,0,0,0,-0.0398,-0.0407,-0.0442,-0.0443,-0.0436,-0.0437,-0.0437,-0.0392,-0.039,-0.036,0,-0.0369,0,-0.0368,-0.0371,-0.0371,0,0,0,-0.0434,-0.0409,-0.0414,-0.0443,-0.0436,-0.0437,-0.0436,-0.0392,-0.0389,-0.0357,-0.0368,-0.0366,-0.0367,-0.0371,-0.037,-0.0301,-0.0301,0,0,-0.0434,-0.0433,-0.0417,-0.0413,-0.0446,-0.0436,-0.0436,-0.0391,-0.0387,-0.0368,-0.0365,-0.0366,-0.037,-0.0369,-0.0301,-0.0301,0,0,0,-0.0435,-0.0433,-0.044,-0.0415,-0.0419,-0.0436,-0.0436,-0.0389,-0.0394,-0.0364,-0.0365,-0.037,-0.0369,-0.0301,-0.0301,-0.029,0,0,0,-0.0435,-0.0434,-0.0441,-0.0438,-0.042,-0.041,-0.0436,-0.0398,-0.0392,-0.0365,-0.037,-0.0368,-0.0302,-0.0301,-0.0291,-0.0285,0,0,0,-0.044,-0.0434,-0.0439,-0.0439,-0.044,-0.0412,-0.0414,-0.0397,-0.0392,-0.0371,-0.0368,-0.0302,-0.0301,-0.0291,-0.0286,-0.0278,0,0,0,-0.0432,-0.0431,-0.0439,-0.0435,-0.0441,-0.0415,-0.0414,-0.0387,-0.0367,-0.0369,-0.0302,-0.0301,-0.0292,-0.0287,-0.0279,-0.0261,-0.0256,0,0,-0.0423,-0.043,-0.0427,-0.0434,-0.0412,-0.0414,-0.0379,-0.0356,-0.0351,-0.0312,-0.0311,-0.0291,-0.0286,-0.0278,-0.0237,-0.0233,0,0,0,-0.0418,-0.0417,-0.041,-0.0405,-0.0391,-0.0369,-0.0351,-0.034,-0.0316,-0.0339,-0.0285,-0.0283,-0.0278,-0.0268,-0.0265,-0.0299,-0.0299,-0.0299,-0.0299,-0.0397,-0.0398,-0.038,-0.0375,-0.0361,-0.033,-0.0312,-0.0294,-0.0289,-0.0281,-0.027,-0.025,-0.0239,-0.0237,-0.0265,-0.0265,-0.0265,-0.0265,-0.0265,-0.0372,-0.0359,-0.036,-0.0344,-0.0327,-0.0302,-0.0273,-0.0268,-0.0243,-0.0251,-0.0247,-0.0252,-0.0233,-0.0264,-0.0265,-0.0265,-0.0265,-0.0265,-0.0265,-0.0351,-0.0341,-0.0342,-0.0326,-0.03,-0.0282,-0.0252,-0.0238,-0.0236,-0.0225,-0.0218,-0.0218,-0.0246,-0.0225,-0.0225,-0.0225,-0.0225,-0.0225,-0.0225,-0.0324,-0.0322,-0.0314,-0.0298,-0.0288,-0.0265,-0.0236,-0.0222,-0.0204,-0.0201,-0.0201,-0.0236,-0.0238,-0.0244,-0.0224,-0.0224,-0.0224,-0.0224,-0.0224,-0.0289,-0.0302,-0.0293,-0.0286,-0.0256,-0.0214,-0.021,-0.0185,-0.0174,-0.0165,-0.0187,-0.0188,-0.019,-0.0192,-0.0197,-0.0166,-0.0166,-0.0166,-0.0166,-0.0272,-0.0274,-0.0284,-0.0274,-0.0248,-0.0192,-0.0127,0.0003,0.0024,0.0089,0.0079,0.0092,0.0082,0.0097,0.0088,0.0089,0.0195,0.0196,0.0197,-0.0251,-0.0264,-0.0274,-0.0275,-0.0254,-0.0158,-0.0061,0.013,0.0275,0.0221,0.024,-0.0161,-0.0172,-0.0175,-0.018,-0.0184,-0.0192,0,0]}],[{"header":{"parameterUnit":"m.s-1","parameterCategory":2,"la1":30.2992,"la2":30.254,"lo1":-89.0895,"lo2":-89.0443,"dy":0.0025,"dx":0.0025,"nx":19,"ny":19,"refTime":"2026-04-30T09:00:00:Z","depth":"4","parameterNumber":2,"parameterNumberName":"U-component_of_CURRENTS"},"data":[0,0,0,0.0512,0.0513,0.058,0.058,0.0635,0.0635,0,0,0,0,0,0,0,0,0,0,0,0.049,0.0491,0.0512,0.0513,0.058,0.058,0.0635,0.0635,0,0,0,0,0,0,0,0,0,0,0,0.049,0.0491,0.0491,0.0514,0.058,0.058,0.0634,0.0593,0,0,0,0,0,0,0,0,0,0,0.0532,0.0524,0.049,0.0491,0.0514,0.058,0.058,0.0591,0.0595,0.0595,0,0.0606,0,0.0619,0.0638,0.0638,0,0,0,0.0517,0.0521,0.0529,0.0491,0.0515,0.058,0.0551,0.0594,0.0598,0.06,0.0607,0.0609,0.062,0.0638,0.0638,0.0674,0.0674,0,0,0.0513,0.0511,0.0526,0.0532,0.0533,0.0549,0.0553,0.0597,0.0607,0.0607,0.0611,0.0621,0.0638,0.0638,0.0674,0.0674,0,0,0,0.05,0.0509,0.0517,0.0529,0.0543,0.0551,0.0555,0.0605,0.0606,0.0611,0.0622,0.0638,0.0639,0.0674,0.0674,0.0689,0,0,0,0.0498,0.0501,0.0516,0.0516,0.0542,0.0581,0.0563,0.0603,0.0608,0.0621,0.0638,0.0639,0.0673,0.0674,0.0688,0.0697,0,0,0,0.0487,0.05,0.0506,0.0516,0.0542,0.0581,0.0585,0.0604,0.0614,0.0638,0.0639,0.0673,0.0674,0.0688,0.0696,0.0714,0,0,0,0.0485,0.0497,0.0506,0.0517,0.0541,0.0567,0.0585,0.0617,0.0638,0.0638,0.0673,0.0674,0.0688,0.0695,0.0713,0.0553,0,0,0,0.0495,0.0498,0.05,0.0509,0.053,0.0558,0.059,0.0629,0.0639,0.0657,0.0658,0.0689,0.0696,0.0713,0.0569,0,0,0,0,0.0498,0.0504,0.0508,0.0527,0.0544,0.0579,0.0617,0.0633,0.0669,0.0653,0.0689,0.0693,0.0704,0.0608,0.0675,0.0675,0.0675,0.0675,0.0675,0.0514,0.0516,0.0526,0.0538,0.0556,0.0604,0.0629,0.0661,0.0671,0.0691,0.0706,0.073,0.0629,0.0705,0.0705,0.0705,0.0705,0.0705,0.0705,0.0518,0.0519,0.0535,0.055,0.0583,0.0622,0.0661,0.0685,0.0721,0.0719,0.0729,0.0631,0.0707,0.0707,0.0706,0.0706,0.0706,0.0706,0.0706,0.0516,0.052,0.0537,0.0561,0.0606,0.0646,0.0662,0.0706,0.0743,0.0753,0.066,0.0744,0.0743,0.0767,0.0767,0.0767,0.0767,0.0767,0.0767,0.051,0.0525,0.0539,0.057,0.0589,0.0623,0.0676,0.0673,0.0717,0.0663,0.0768,0.0751,0.0749,0.0747,0.0769,0.0769,0.0769,0.0768,0.0768,0.0504,0.0515,0.0523,0.0538,0.0558,0.0553,0.0622,0.0582,0.0585,0.0555,0.0609,0.0617,0.0599,0.0601,0.0592,0.057,0.0568,0.0566,0,0.0497,0.0502,0.0503,0.0497,0.0471,0.0502,0.044,0.0447,0.048,0.047,0.06,0.0665,0.0668,0.065,0.0649,0.064,0,0,0,0.0491,0.049,0.0479,0.0467,0.0424,0.0379,0.0413,0.038,0.0495,0.0407,0.0517,0.053,0.0626,0.0775,0.0765,0.0762,0.0759,0,0]},{"header":{"parameterUnit":"m.s-1","parameterCategory":2,"la1":30.2992,"la2":30.254,"lo1":-89.0895,"lo2":-89.0443,"dy":0.0025,"dx":0.0025,"nx":19,"ny":19,"refTime":"2026-04-30T09:00:00:Z","depth":"4","parameterNumber":3,"parameterNumberName":"V-component_of_CURRENTS"},"data":[0,0,0,0.0337,0.0337,0.0334,0.0334,0.0298,0.0298,0,0,0,0,0,0,0,0,0,0,0,0.0346,0.0346,0.0337,0.0337,0.0334,0.0334,0.0298,0.0298,0,0,0,0,0,0,0,0,0,0,0,0.0346,0.0346,0.0346,0.0337,0.0334,0.0334,0.0298,0.0309,0,0,0,0,0,0,0,0,0,0,0.0316,0.0324,0.0346,0.0346,0.0337,0.0334,0.0334,0.031,0.0308,0.0291,0,0.0298,0,0.0293,0.0295,0.0295,0,0,0,0.0337,0.0325,0.0328,0.0346,0.0337,0.0334,0.0335,0.0309,0.0307,0.0289,0.0298,0.0296,0.0293,0.0295,0.0294,0.0255,0.0255,0,0,0.0337,0.0339,0.0329,0.0327,0.0345,0.0335,0.0335,0.0308,0.0307,0.0297,0.0295,0.0292,0.0294,0.0294,0.0255,0.0255,0,0,0,0.0338,0.0339,0.0343,0.0329,0.0328,0.0335,0.0335,0.0308,0.0311,0.0295,0.0292,0.0294,0.0293,0.0255,0.0255,0.0261,0,0,0,0.0338,0.034,0.0343,0.0343,0.0329,0.0321,0.0336,0.0313,0.031,0.0292,0.0294,0.0293,0.0255,0.0255,0.0261,0.028,0,0,0,0.0345,0.034,0.0343,0.0343,0.0342,0.0321,0.0322,0.0313,0.0307,0.0295,0.0293,0.0255,0.0255,0.0262,0.028,0.0311,0,0,0,0.0341,0.0339,0.0344,0.0346,0.0342,0.033,0.0323,0.0297,0.0283,0.0294,0.0255,0.0255,0.0262,0.0279,0.031,0.0338,0,0,0,0.0334,0.0339,0.0342,0.0345,0.0343,0.033,0.0319,0.029,0.0276,0.0262,0.0261,0.0261,0.028,0.031,0.0324,0,0,0,0,0.0337,0.0336,0.0338,0.0341,0.0337,0.0332,0.0301,0.0292,0.0271,0.0268,0.0255,0.0266,0.0286,0.0299,0.0254,0.0254,0.0254,0.0254,0.0254,0.0324,0.0331,0.0332,0.0337,0.0336,0.0318,0.0316,0.0297,0.0269,0.0258,0.0266,0.0288,0.03,0.0251,0.0251,0.0251,0.0251,0.0251,0.0251,0.0316,0.0319,0.0331,0.0331,0.0338,0.0327,0.0323,0.0305,0.0304,0.0274,0.0292,0.0297,0.0252,0.0252,0.0252,0.0251,0.0251,0.0251,0.0251,0.0312,0.0312,0.0317,0.0327,0.0335,0.0334,0.0371,0.0347,0.0321,0.0328,0.0346,0.0305,0.0313,0.0328,0.0328,0.0329,0.0329,0.0329,0.0329,0.0304,0.0308,0.0316,0.0325,0.0343,0.0371,0.0394,0.0424,0.0396,0.0372,0.0329,0.0315,0.0312,0.0318,0.0332,0.0332,0.0331,0.0331,0.0331,0.0292,0.0305,0.0318,0.0337,0.0385,0.0416,0.0447,0.0491,0.0512,0.0508,0.0405,0.04,0.041,0.0405,0.0415,0.0459,0.0459,0.046,0,0.0293,0.0296,0.0337,0.038,0.043,0.0454,0.0511,0.0544,0.0513,0.0477,0.0501,0.0381,0.0378,0.0386,0.0383,0.0393,0,0,0,0.0293,0.0309,0.0346,0.0394,0.0455,0.0499,0.0528,0.0534,0.049,0.0561,0.0471,0.0468,0.046,0.0342,0.0346,0.0343,0.0354,0,0]}]]